Location: Coutarnoux
(47.5867°N, 3.9651°E)
Time: 04:44:27
(UTC+00:00)

Daily predictions for brighter satellites

Satellite Brightness Start Highest point End
(mag) Time Altitude Azimuth Time Altitude Azimuth Time Altitude Azimuth
USA 267 4.4 00:01:12 10° ENE 00:07:12 41° N 00:13:13 10° WNW
Cosmos 1025 Rocket 4.1 00:03:29 10° NNW 00:06:21 41° NNW 00:06:21 41° NNW
Okean 1 Rocket 4.4 00:09:30 34° ENE 00:09:30 34° ENE 00:12:32 10° NNE
SJ 16-02 2.9 00:09:53 29° ENE 00:09:53 29° ENE 00:12:35 10° NE
Okean 2 Rocket 3.9 00:10:41 49° NNW 00:10:41 49° NNW 00:14:10 10° N
SL-16 R/B 2.2 00:07:48 10° NNW 00:13:32 74° ENE 00:13:48 72° E
Cosmos 2263 Rocket 4.3 00:14:58 14° E 00:15:09 14° E 00:18:00 10° ENE
Nadezhda 4 Rocket 4.2 00:09:26 10° NNW 00:15:31 55° W 00:15:44 55° W
Meteor 2-13 Rocket 4.3 00:10:50 10° N 00:16:59 89° W 00:17:19 81° S
Cosmos 1428 Rocket 4.5 00:11:50 10° N 00:18:08 74° E 00:18:53 66° SE
Cosmos 2297 Rocket 2.3 00:28:55 62° WNW 00:29:15 63° WNW 00:34:54 10° NNE
Cosmos 158 Rocket 4.1 00:24:26 10° NNW 00:29:52 73° ENE 00:29:59 73° E
Cosmos 2344 4.4 00:23:19 10° NW 00:32:52 66° WSW 00:38:10 39° S
Cosmos 1092 Rocket 4.0 00:30:12 10° NNW 00:36:19 61° W 00:36:34 60° WSW
Cosmos 2112 Rocket 4.1 00:31:26 10° NNW 00:36:40 70° ENE 00:36:46 69° ENE
USA 229 DEB 4.0 00:36:45 47° SE 00:37:05 47° ESE 00:43:34 10° NE
USA 229 4.0 00:36:53 47° SE 00:37:12 47° ESE 00:43:39 10° NE
Cosmos 2237 Rocket 3.6 00:37:52 10° NW 00:41:12 25° W 00:41:12 25° W
Cosmos 2219 3.8 00:41:47 42° W 00:42:38 45° NW 00:48:01 10° NNE
Meteor 1-15 Rocket 4.1 00:43:07 81° WSW 00:43:15 82° WNW 00:48:52 10° N
Cosmos 1898 Rocket 4.0 00:43:57 50° E 00:43:57 50° E 00:48:47 10° NNE
Cosmos 1892 Rocket 4.3 00:43:45 10° N 00:47:51 49° ENE 00:47:51 49° ENE
NOSS 3-1 (A) 4.0 00:48:36 38° ESE 00:48:36 38° ESE 00:54:16 10° NE
Meteor 1-24 Rocket 3.7 00:43:15 10° N 00:48:39 67° ENE 00:49:07 63° ESE
CZ-4 R/B 4.3 00:46:28 10° N 00:51:18 56° WNW 00:51:18 56° WNW
Cosmos 1680 Rocket 3.5 00:46:38 10° NNW 00:51:28 72° WNW 00:51:28 72° WNW
Cosmos 1461 3.4 00:55:29 61° N 00:55:29 61° N 00:59:27 10° NE
DELTA 2 DEB (DPAF) 4.3 01:05:02 70° NE 01:05:02 70° NE 01:09:16 10° N
Cosmos 1340 Rocket 4.1 01:07:07 35° ENE 01:07:07 35° ENE 01:10:16 10° NNE
CZ-2D R/B 2.6 01:01:46 10° NNE 01:07:07 50° E 01:08:00 46° SE
Cosmos 1766 4.3 01:11:18 40° NNW 01:11:18 40° NNW 01:14:03 10° N
Timation 1 Rocket 4.4 01:10:12 57° SSE 01:11:01 63° ESE 01:16:54 10° NE
SL-16 R/B 2.6 01:09:25 46° SSE 01:11:28 79° ENE 01:17:44 10° NNW
Cosmos 1943 3.8 01:07:07 10° NNW 01:12:39 54° ENE 01:16:10 22° SE
Cosmos 1733 4.2 01:14:34 42° NNW 01:14:34 42° NNW 01:17:20 10° N
Cosmos 1626 3.5 01:13:02 10° NNW 01:15:17 34° NNW 01:15:17 34° NNW
Cosmos 1655 Rocket 3.9 01:10:42 10° N 01:16:59 89° W 01:18:27 56° S
Cosmos 2227 Rocket 3.3 01:18:31 29° W 01:20:06 34° NW 01:25:14 10° NNE
Cosmos 2292 Rocket 4.4 01:13:36 10° N 01:20:45 85° E 01:22:07 56° SSE
Cosmos 1544 Rocket 4.1 01:22:37 51° ESE 01:22:50 51° E 01:27:12 10° NNE
Cosmos 1470 3.3 01:24:19 58° ENE 01:24:19 58° ENE 01:27:51 10° NNE
Cosmos 1953 3.9 01:23:54 26° ESE 01:24:27 26° E 01:27:52 10° NNE
Meteor 2-5 Rocket 4.0 01:19:40 10° NNW 01:25:01 48° W 01:25:04 48° W
Meteor 1-22 Rocket 3.9 01:25:04 68° WSW 01:25:35 74° WNW 01:31:00 10° N
NPP 3.9 01:20:36 10° NNE 01:25:58 61° ESE 01:27:05 50° SSE
Helios 1B rocket 3.8 01:22:51 10° N 01:25:58 28° NW 01:25:58 28° NW
Cosmos 2279 Rocket 4.2 01:29:43 49° WSW 01:30:54 56° WNW 01:37:02 10° N
Cosmos 858 Rocket 4.4 01:32:00 69° SSW 01:32:41 88° WNW 01:37:59 10° NNE
AQUA 4.1 01:28:59 10° NNE 01:33:41 56° E 01:34:26 50° SE
Exosat Rocket 4.3 01:36:53 41° S 01:39:50 77° ESE 01:45:50 10° NNE
Resurs 1-4 Rocket 2.0 01:35:18 10° NNE 01:40:36 86° WNW 01:41:36 60° SSW
Cosmos 1602 Rocket 4.3 01:38:47 10° N 01:43:01 48° ENE 01:44:26 34° SE
Cosmos 2098 Rocket 3.9 01:38:53 10° NNW 01:44:30 73° W 01:46:32 45° SSW
NOSS 2-3 (E) 3.5 01:44:49 76° SSW 01:45:11 88° SE 01:50:18 10° NE
Cosmos 2227 4.2 01:44:00 53° S 01:45:26 79° ESE 01:51:14 10° NNE
SJ 16-02 2.7 01:46:52 27° WNW 01:47:11 27° WNW 01:50:58 10° N
USA 267 4.4 01:43:19 10° E 01:49:26 44° NNE 01:55:33 10° NW
NOSS 3-1 (C) 3.6 01:48:09 40° WSW 01:50:04 61° NW 01:56:34 10° NE
SL-16 R/B 3.9 01:53:06 10° NW 01:55:38 18° W 01:55:38 18° W
Cosmos 2263 Rocket 2.1 01:56:40 50° SSW 01:58:13 89° ESE 02:03:49 10° NNE
Cosmos 2298 Rocket 4.4 01:57:57 38° SSE 01:59:46 58° ESE 02:05:01 10° NNE
Cosmos 372 Rocket 3.9 02:04:37 47° SSW 02:06:10 87° ESE 02:11:27 10° NNE
Cosmos 1937 Rocket 4.1 02:07:18 38° WSW 02:08:44 47° WNW 02:13:53 10° NNE
Meteor 1-28 Rocket 4.3 02:06:34 20° SE 02:08:52 43° ENE 02:12:30 10° N
COBE Rocket 3.7 02:08:32 52° SSW 02:09:30 67° W 02:14:09 10° NNW
NOSS 2-3 (D) 3.8 02:08:30 49° WSW 02:09:33 66° NW 02:14:42 10° NE
SL-08 R/B 4.0 02:05:26 13° SSE 02:09:44 57° ENE 02:14:35 10° N
Cosmos 1809 Rocket 4.4 02:04:16 10° NNW 02:10:22 72° W 02:13:15 33° S
ADEOS II 2.1 02:06:57 10° NNE 02:12:14 75° ESE 02:14:31 35° S
Cosmos 1626 Rocket 3.5 02:08:12 10° NNW 02:12:29 63° W 02:13:03 57° SW
Cosmos 1455 Rocket 3.9 02:12:38 35° W 02:13:01 36° WNW 02:17:09 10° N
Cosmos 2285 Rocket 4.2 02:10:59 30° S 02:14:13 66° ESE 02:20:27 10° NNE
ATLAS CENTAUR R/B 1.6 02:13:46 48° SSE 02:14:26 54° ESE 02:18:16 10° NE
Cosmos 1726 1.9 02:14:19 72° WSW 02:14:27 73° W 02:18:07 10° N
Cosmos 2297 Rocket 4.4 02:11:11 10° WNW 02:14:30 16° NW 02:17:50 10° N
CZ-4B R/B 3.2 02:10:25 10° NNE 02:15:11 82° WNW 02:16:40 45° SSW
Cosmos 1844 Rocket 4.0 02:17:42 15° SSE 02:21:27 32° ESE 02:26:20 10° NE
GEOS 3 Rocket 3.8 02:20:31 10° NE 02:25:54 67° NW 02:28:25 32° WSW
USA 229 DEB 4.3 02:24:11 23° W 02:28:04 48° NW 02:34:48 10° NE
USA 229 4.3 02:24:18 24° W 02:28:10 48° NW 02:34:54 10° NE
Meteor 1-21 Rocket 4.2 02:23:29 10° NNW 02:28:56 61° W 02:31:40 29° SSW
Meteor 2-21 4.5 02:23:00 10° NNW 02:28:57 60° W 02:32:12 28° SSW
CBERS-1 4.0 02:23:52 10° N 02:28:59 72° WNW 02:31:10 35° SSW
Cosmos 468 4.4 02:23:56 10° NNW 02:29:12 74° WSW 02:33:36 15° SSE
Meteor 2-10 4.3 02:27:11 35° SW 02:29:33 64° WNW 02:35:15 10° N
Cosmos 2084 3.4 02:28:47 44° SW 02:30:09 85° SE 02:34:37 10° NE
ARIANE 5 R/B 2.9 02:27:24 10° NNE 02:32:37 62° ESE 02:36:11 20° S
NOSS 8 (E) 4.5 02:32:47 51° SSE 02:33:08 55° SE 02:36:06 10° NE
Cosmos 1244 Rocket 4.4 02:28:14 10° NNW 02:34:36 77° W 02:39:39 17° S
Cosmos 1758 Rocket 3.5 02:30:58 10° N 02:35:19 86° E 02:38:14 21° S
Cosmos 1603 4.4 02:32:58 10° NW 02:37:58 32° WSW 02:39:05 30° SW
NOSS 3-1 (A) 4.0 02:36:02 24° WSW 02:39:17 49° NW 02:45:43 10° NE
Cosmos 1340 Rocket 4.4 02:42:44 20° WNW 02:43:12 20° WNW 02:46:11 10° NNW
Cosmos 494 Rocket 3.9 02:39:21 10° NNW 02:44:32 88° WSW 02:49:45 10° SSE
Cosmos 2150 Rocket 4.0 02:42:28 30° SW 02:44:59 68° WNW 02:50:16 10° NNE
CZ-2D R/B 3.4 02:42:17 10° N 02:46:54 28° WNW 02:49:19 20° W
H-2A R/B 3.2 02:43:51 10° SE 02:47:43 43° ENE 02:51:37 10° N
Cosmos 1703 3.3 02:46:57 10° NNW 02:50:51 57° W 02:52:42 28° SSW
S3M 4.3 02:45:36 10° S 02:51:55 69° E 02:58:16 10° NNE
Cosmos 1825 Rocket 3.4 02:49:32 10° NNW 02:53:53 78° W 02:57:30 14° S
SL-16 R/B 3.8 02:54:31 19° WSW 02:55:44 20° W 03:00:11 10° NW
Cosmos 1943 4.1 02:51:44 10° NW 02:56:22 27° WSW 02:57:52 24° SW
Landsat 5 4.4 02:52:46 10° SE 02:56:38 49° ENE 03:00:41 10° N
Cosmos 1125 Rocket 3.5 02:54:00 24° SSW 02:57:14 80° WNW 03:02:33 10° NNE
USA 215 3.6 02:52:33 10° ENE 02:59:00 58° SE 03:03:50 18° SSW
IRS-1C 4.2 02:55:01 10° N 03:00:18 63° WNW 03:03:50 21° SW
Cosmos 1953 3.5 02:59:36 24° WSW 03:00:46 28° WNW 03:04:18 10° NNW
IRS-1D 4.3 02:58:40 10° N 03:03:20 37° WNW 03:06:07 21° WSW
Cosmos 1328 4.1 03:00:49 10° NNW 03:04:40 47° W 03:07:02 21° SSW
Cosmos 1953 Rocket 3.5 03:00:51 10° N 03:05:22 87° W 03:09:50 10° S
CZ-2D R/B 3.3 03:05:53 10° NNE 03:09:54 83° WNW 03:12:52 17° SSW
Cosmos 1709 Rocket 4.5 03:04:01 10° N 03:10:08 62° ENE 03:16:10 10° SSE
Resurs 1-4 Rocket 4.0 03:16:42 10° NNW 03:19:40 15° NW 03:22:37 10° W
Cosmos 1606 Rocket 3.8 03:19:24 17° SSW 03:22:45 53° WNW 03:27:09 10° N
Atlas Centaur 2 4.1 03:20:39 13° SSW 03:23:48 18° S 03:28:35 10° SE
NOSS 2-2 (E) 3.2 03:22:46 18° SSW 03:25:21 74° SE 03:29:22 10° NE
NOSS 2-2 (D) 3.5 03:23:29 15° SSW 03:26:15 58° SE 03:30:06 10° NE
CENTAUR R/B 4.2 03:18:48 10° NW 03:26:22 50° NE 03:34:47 10° ESE
IDEFIX/ARIANE 42P 2.6 03:23:48 10° N 03:28:58 66° WNW 03:34:08 10° SSW
USA 267 3.4 03:25:29 10° ESE 03:32:02 81° NNE 03:38:36 10° NW
Meteor 2-15 Rocket 4.5 03:28:35 10° S 03:34:39 90° SE 03:40:46 10° N
MSX 3.9 03:29:05 10° NNE 03:34:53 85° WNW 03:40:40 10° SSW
PSLV R/B 4.2 03:31:18 10° NNE 03:35:38 56° E 03:39:54 10° S
COSMOS 2406 4.2 03:31:22 10° NNW 03:36:57 53° ENE 03:42:28 10° SE
Cosmos 1726 Rocket 3.9 03:33:33 12° SSW 03:37:28 47° WNW 03:41:48 10° N
Cosmos 2228 3.8 03:36:22 14° SW 03:39:47 35° WNW 03:43:52 10° N
Cosmos 2315 Rocket 4.2 03:35:13 10° S 03:41:33 81° E 03:47:58 10° N
ADEOS Rocket 4.4 03:34:41 10° SE 03:42:14 58° ENE 03:49:43 10° N
Cosmos 2263 Rocket 3.9 03:38:51 10° W 03:42:56 20° NW 03:47:01 10° N
Cosmos 1844 3.8 03:37:28 10° SSW 03:43:16 79° WNW 03:49:03 10° NNE
CZ-2C R/B 3.0 03:44:51 10° N 03:48:32 48° WNW 03:52:08 10° SW
Cosmos 1455 3.8 03:46:09 10° SSE 03:49:43 36° E 03:53:18 10° NNE
Cosmos 1356 Rocket 4.2 03:46:41 11° SW 03:50:22 34° WNW 03:54:08 10° N
ADEOS II 3.7 03:47:45 10° NNW 03:51:21 19° WNW 03:54:57 10° W
Cosmos 1300 3.3 03:49:51 10° SW 03:53:27 39° WNW 03:57:04 10° N
ATLAS CENTAUR R/B 2.9 03:50:19 10° W 03:53:34 23° NW 03:56:41 10° NNE
ERS-2 2.5 03:52:50 10° S 03:56:18 42° W 03:59:48 10° NNW
CZ-4C R/B 3.9 03:56:25 10° SSW 03:59:16 27° W 04:02:14 10° NW
Cosmos 1400 Rocket 4.1 03:57:11 10° SSE 04:00:50 41° E 04:04:30 10° NNE
Cosmos 2278 Rocket 3.4 03:58:58 10° S 04:04:17 44° ESE 04:09:38 10° NE
Cosmos 1844 Rocket 3.2 03:59:50 10° SW 04:05:10 45° NW 04:10:33 10° NNE
SAR-Lupe-4 3.6 04:02:40 10° SSE 04:06:13 89° WSW 04:09:51 10° NNW
Cosmos 1076 Rocket 3.7 04:01:56 10° N 04:06:18 82° ENE 04:10:40 10° S
Cosmos 2251 Rocket 3.7 04:02:03 10° NNW 04:07:28 82° ENE 04:12:51 10° SSE
Cosmos 1833 Rocket 3.3 04:03:43 10° NNW 04:09:21 65° ENE 04:14:58 10° SE
NOSS 2-2 (C) 3.5 04:06:09 10° WSW 04:09:39 54° NW 04:13:39 10° NE
Cosmos 1812 Rocket 3.9 04:05:26 10° S 04:09:44 72° E 04:14:06 10° NNE
Lacrosse 5 rocket 3.0 04:06:27 10° SSW 04:10:31 33° SE 04:14:40 10° ENE
NOSS 3-2 (A) 4.1 04:03:37 10° NW 04:11:07 81° SW 04:19:36 10° SSE
ARIANE 5 R/B 4.0 04:07:19 10° N 04:11:17 22° WNW 04:15:15 10° WSW
USA 281 3.6 04:05:15 10° NNE 04:11:49 68° ESE 04:18:21 10° SSW
